Weather History for Fort Myers, FL

Change the Weather History Date:

Friday, January 18, 2013

  Actual Average Record
Temperature  
Mean Temperature 57 °F 64 °F  
Max Temperature 68 °F 75 °F 86 °F (1943)
Min Temperature 45 °F 54 °F 31 °F (1977)
Degree Days  
Heating Degree Days 8 4  
Month to date heating degree days 8 72  
Since 1 July heating degree days 66 165  
Cooling Degree Days 0 3  
Month to date cooling degree days 131 53  
Year to date cooling degree days 131 53  
Growing Degree Days 6 (Base 50)    
Moisture  
Dew Point 46 °F    
Average Humidity 65    
Maximum Humidity 90    
Minimum Humidity 48    
Precipitation  
Precipitation 0.00 in 0.06 in 2.03 in (2004)
Month to date precipitation 0.46 1.12  
Year to date precipitation 0.46 1.12  
Sea Level Pressure  
Sea Level Pressure 30.21 in    
Wind  
Wind Speed 10 mph (NNE)    
Max Wind Speed 20 mph    
Max Gust Speed 24 mph    
Visibility 10 miles    
Events      
T = Trace of Precipitation, MM = Missing Value Source: NWS Daily Summary

Daily Weather History Graph

Daily Weather History Graph

Search for Another Location

Airport:

Trip Planner

Search our weather history database for the weather conditions in past years. The results will help you decide how hot, cold, wet, or windy it might be!

Date:

Astronomy

Jan. 18, 2013 Rise Set
Actual Time 7:16 AM EST 5:59 PM EST
Civil Twilight 6:52 AM EST 6:24 PM EST
Nautical Twilight 6:23 AM EST 6:52 PM EST
Astronomical Twilight 5:55 AM EST 7:20 PM EST
Moon 11:41 AM EST (1/18) 12:04 AM EST (1/18)
Length of Visible Light 11h 32m
Length of Day
10h 42m
Waxing Crescent, 47% of the Moon is Illuminated
Jan 18
Waxing Crescent
Jan 18
First Quarter
Jan 26
Full
Feb 3
Last Quarter
Feb 10
New

Hourly Weather History & Observations

Time (EST) Temp. Windchill Dew Point Humidity Pressure Visibility Wind Dir Wind Speed Gust Speed Precip Events Conditions
12:53 AM 60.1 °F - 48.9 °F 67% 30.14 in 10.0 mi NNW 13.8 mph - N/A   Mostly Cloudy
1:53 AM 57.9 °F - 48.0 °F 70% 30.14 in 10.0 mi North 9.2 mph - N/A   Mostly Cloudy
2:53 AM 59.0 °F - 46.9 °F 64% 30.14 in 10.0 mi NNW 11.5 mph 19.6 mph N/A   Overcast
3:32 AM 57.2 °F - 46.4 °F 67% 30.14 in 10.0 mi NNW 17.3 mph 21.9 mph N/A   Overcast
3:53 AM 57.0 °F - 46.0 °F 67% 30.15 in 10.0 mi NNW 13.8 mph - N/A   Overcast
4:53 AM 55.0 °F - 44.1 °F 67% 30.16 in 10.0 mi North 11.5 mph - N/A   Overcast
5:53 AM 53.1 °F - 43.0 °F 69% 30.19 in 10.0 mi North 12.7 mph - N/A   Overcast
6:53 AM 52.0 °F - 43.0 °F 71% 30.22 in 10.0 mi North 12.7 mph - N/A   Overcast
7:53 AM 46.9 °F - 36.0 °F 66% 30.26 in 10.0 mi NNE 16.1 mph - N/A   Overcast
8:53 AM 45.0 °F 38.5 °F 35.1 °F 68% 30.30 in 10.0 mi NNE 13.8 mph - N/A   Scattered Clouds
9:53 AM 50.0 °F - 36.0 °F 59% 30.30 in 10.0 mi NE 15.0 mph - N/A   Clear
10:34 AM 51.8 °F - 37.4 °F 58% 30.29 in 10.0 mi East 9.2 mph - N/A   Mostly Cloudy
10:53 AM 53.1 °F - 37.9 °F 57% 30.29 in 10.0 mi East 9.2 mph - N/A   Mostly Cloudy
11:35 AM 55.4 °F - 39.2 °F 54% 30.26 in 10.0 mi East 9.2 mph - N/A   Mostly Cloudy
11:53 AM 57.0 °F - 41.0 °F 55% 30.27 in 10.0 mi East 6.9 mph - N/A   Overcast
12:53 PM 61.0 °F - 44.1 °F 54% 30.23 in 10.0 mi NE 11.5 mph - N/A   Clear
1:53 PM 64.0 °F - 45.0 °F 50% 30.20 in 10.0 mi NE 11.5 mph - N/A   Mostly Cloudy
2:53 PM 66.0 °F - 46.9 °F 50% 30.19 in 10.0 mi ENE 9.2 mph - N/A   Overcast
3:53 PM 66.0 °F - 48.9 °F 54% 30.19 in 10.0 mi East 9.2 mph - N/A   Overcast
4:53 PM 68.0 °F - 50.0 °F 52% 30.19 in 10.0 mi ENE 5.8 mph - N/A   Partly Cloudy
5:53 PM 66.9 °F - 51.1 °F 57% 30.20 in 10.0 mi NE 10.4 mph - N/A   Overcast
6:53 PM 64.0 °F - 52.0 °F 65% 30.21 in 10.0 mi NE 4.6 mph - N/A   Clear
7:53 PM 64.0 °F - 55.0 °F 73% 30.22 in 10.0 mi NNE 6.9 mph - N/A   Overcast
8:53 PM 63.0 °F - 54.0 °F 72% 30.22 in 10.0 mi NNE 8.1 mph - N/A   Partly Cloudy
9:53 PM 61.0 °F - 55.9 °F 83% 30.24 in 10.0 mi NNE 9.2 mph - N/A   Clear
10:53 PM 60.1 °F - 57.0 °F 90% 30.23 in 10.0 mi NNE 8.1 mph - N/A   Clear
11:53 PM 59.0 °F - 57.0 °F 93% 30.22 in 10.0 mi NNE 4.6 mph - N/A   Clear